Location: Multiple Mirror Telescope
(31.6889°N, 110.8853°W)
Time: 13:00:33
(UTC-07:00)

Hubble Space Telescope - Pass Details

Date: 01 December 2023
Orbit: 516 x 519 km, 28.5° (Epoch: 27 February)

Event Time Altitude Azimuth Distance (km) Brightness Sun altitude
Rises 19:11:59 0° 268° (W) 2,621 5.7 -23.4°
Reaches altitude 10° 19:14:26 10° 257° (WSW) 1,735 4.5 -24.0°
Maximum altitude 19:17:53 28° 197° (SSW) 991 2.3 -24.7°
Enters shadow 19:18:16 27° 186° (S) 1,004 2.2 -24.8°
